Regional Weather Roundup
Issued by NWS Albany, NY

Home | Current Version | Previous Version | Text Only | Print | Product List | Glossary On
Versions: 1 2 3 4 5 6 7 8 9 10 11 12 13 14 15 16 17 18 19 20 21 22 23 24 25 26 27 28 29 30 31 32 33 34 35 36 37 38 39 40 41 42 43 44 45 46 47 48 49 50
118
ASUS41 KALY 191710
RWRALY

NEW YORK STATE HOURLY WEATHER ROUNDUP
NATIONAL WEATHER SERVICE ALBANY NY
1200 PM EST FRI JAN 19 2018

NOTE: "FAIR" INDICATES FEW OR NO CLOUDS BELOW 12,000 FEET WITH NO
SIGNIFICANT WEATHER AND/OR NO OBSTRUCTIONS TO VISIBILITY.

NYZ032-033-038>043-046>054-057>066-NYZ062>081-082-084-191800-
EAST


CITY           SKY/WX    TMP DP  RH WIND       PRES   REMARKS
ALBANY         CLOUDY    25  15  66 S6        29.99F WCI  18
GLENS FALLS    CLOUDY    24  16  71 SW10      29.96F WCI  14
POUGHKEEPSIE   FAIR      27  14  58 S7        30.00F WCI  19
NEWBURGH       PTSUNNY   27  16  63 W7        30.01F WCI  19
MONTGOMERY     FAIR      30  16  56 W9        29.98F WCI  22
WHITE PLAINS   FAIR      29  14  53 W8        30.00F WCI  21
ISLIP          CLOUDY    35  16  45 NW12      30.02F WCI  27
NEW YORK CITY  PTSUNNY   34  14  43 W12       30.04F WCI  25
CENTRAL PARK   FAIR      34  15  46 MISG      30.06F
$$

NYZ005>009-017-018-044>046-055-056-191800-
CENTRAL


CITY           SKY/WX    TMP DP  RH WIND       PRES   REMARKS
FULTON         CLOUDY    31  19  61 SW9       29.93F WCI  23
SYRACUSE       CLOUDY    30  19  63 SW15      29.94F WCI  19
ROME           CLOUDY    24  15  68 E5        29.97F WCI  18
ELMIRA         FAIR      31  16  54 SW10      29.95F WCI  22
BINGHAMTON     FAIR      24  13  62 W9        29.91F WCI  14
MONTICELLO     FAIR      27  15  61 W10G16    29.95F WCI  17
$$

NYZ026>034-041>043-087-191800-
NORTH


CITY           SKY/WX    TMP DP  RH WIND       PRES   REMARKS
WATERTOWN      CLOUDY    31  26  82 SW14      29.90F HAZE    WCI  21
FORT DRUM      NOT AVBL
OGDENSBURG     CLOUDY    31  24  75 SW12      29.87F WCI  22
MASSENA        CLOUDY    29  23  78 SW15      29.88F WCI  18
SARANAC LAKE   CLOUDY    22  20  92 SW7       29.80F FOG     WCI  13
PLATTSBURGH    CLOUDY    27  20  75 S6        29.89F WCI  20
$$

NYZ001>004-010>016-019>021-085-191800-
WEST


CITY           SKY/WX    TMP DP  RH WIND       PRES   REMARKS
NIAGARA FALLS  FAIR      31  18  58 SW24G33   29.92F WCI  17
BUFFALO        FAIR      30  18  60 SW26G35   29.93F WCI  16
DUNKIRK        FAIR      31  17  56 SW16      29.96F WCI  20
JAMESTOWN      FAIR      27  16  63 SW16G22   29.92F WCI  15
WELLSVILLE     FAIR      29  15  56 SW14G20   29.89F WCI  18
ROCHESTER      FAIR      32  18  56 W21G26    29.93F WCI  20
PENN YAN       FAIR      29  15  56 SW9       29.93F WCI  20
$$

             KEY
       WCI = WIND CHILL INDEX
       VSB = VISIBILITY
       HX  = HEAT INDEX
$$




USA.gov is the U.S. government's official web portal to all federal, state and local government web resources and services.